Lid_Strength_Index
28 29 30 31 31 30 30 29 28 28 28 27 26 25 24 24 23 21 22 22 21 20
27 28 28 30 33 29 30 27 29 29 28 27 26 25 25 24 24 23 22 21 20 20
25 26 27 27 28 28 28 28 28 29 28 27 26 25 25 24 23 23 22 20 20 20
25 25 25 26 26 27 28 27 28 28 28 27 26 25 25 24 23 23 22 21 21 20
25 25 27 28 27 27 28 27 28 27 27 26 26 25 25 24 24 23 23 21 21 20
26 28 27 29 29 28 27 28 29 27 28 27 25 25 24 24 23 22 21 20 20 19
28 29 30 30 30 29 28 28 28 28 28 26 25 24 23 21 21 20 19 17 17 16
30 33 33 32 31 31 31 30 29 28 27 27 25 22 21 19 18 18 16 15 14 14
31 31 32 30 31 33 31 31 31 30 29 27 24 18 15 14 16 15 14 15 14 13
31 30 31 32 33 31 31 33 31 30 30 27 25 17 14 12 14 14 14 14 13 13
30 30 30 33 32 32 32 30 28 27 27 27 24 16 13 12 14 14 14 13 13 13
32 29 30 30 30 30 32 29 29 27 26 25 24 16 13 13 16 16 14 13 12 11
28 30 30 30 29 31 33 27 25 24 24 21 21 16 13 13 15 16 14 13 11 8
27 30 29 29 31 30 28 26 26 24 23 23 21 20 13 11 13 13 13 13 12 9